STARLINK-5628, 55466

Orbit data source: Space-Track

STARLINK-5628, 55466 is a payload satellite owned by SpaceX/Seattle (US) in LEO that was launched on Thu, 02 Feb 2023 UTC via an FALCON 9 launch vehicle from the Air Force Eastern Test Range (AFETR). Payload-class satellites include a variety of spacecraft equipped with specific instruments for various scientific and technological missions. These include communications satellites like Starlink; space stations such as the ISS; scientific satellites like the Hubble; Earth observation satellites from companies like Planet Labs, Umbra, and HawkEye 360; GPS; miniature CubeSats for education and research; and military/defense satellites.

Loading next visibility...
Identifier
55466, 2023-015T
Orbit
LEO
Country
Flag of USUS
Related business
Manufacturer
SpaceX/Seattle
Mission
Operational Commercial Communications
Bus & Motor
STARLINK, Unknown motor
Mass
305 kg wet, ~290 kg dry
Launch date (UTC)
2023-02-02 (3 years ago)
Launch vehicle
FALCON 9
Launch site
Air Force Eastern Test Range (AFETR)
Object type
Payload
Rocket body
Debris
Shape & HBR
Box + 1 Pan, 10.1 m
Radar Cross Section
13.562 m², Large (>1 m²)

Expand to show TLE details & history
Last TLE update: 9 hours ago

TLE from 9 hours ago
0 STARLINK-5628
1 55466U 23015T   25303.30016178 -.00000412  00000-0 -15404-4 0  9993
2 55466  43.0064 314.1781 0001326 269.4890  90.5801 15.02537280151148
Epoch: 2025-10-30T07:12Z
TLE epoch observation values (Epoch: 2025-10-30T07:12:13.977Z)
Latitude
0.00001°
Longitude
167.25894°
Altitude
558.864 km
Speed
7.584 km/s
True Right ascension
20h 56m 42s
True Declination
0° 00' 00"
Sunlit
Object was in daylight at epoch
Visualization orbit readout
Latitude
Unknown
Longitude
Unknown
Altitude
Unknown
Speed
Unknown
Apparent Right ascension
Unknown
Apparent Declination
Unknown
Sunlit
N/A
Visualization observer readout
Local Sidereal Time
11:53:29
Azimuth
Unknown
Elevation
Unknown
Doppler factor
Unknown
Orbital elements
Apogee altitude
561.919 km
Perigee altitude
560.078 km
Semi-major axis
6,939.135 km
Eccentricity
0.00013
Inclination
43.0064°
RAAN
314.1781°
Arg. of periapsis
269.489°
True anomaly
90.59529°
Mean anomaly
90.5801°
Eccentric anomaly
90.5877°
Mean motion
3.75479 °/min
Orbital period
95.88 mins
BSTAR
-0.000015404
Loading maneuver chart data...
Computing Atmospheric mass density...
Loading historical data...
Loading historical data...
Loading historical data...
Loading historical data...
Loading historical data...
Loading historical data...
Loading historical data...

Documentation

Showing up to 5 results
|